Cloud_Cover
18 24 5 73 48 15 36 63 81 12 80 14 11 5 63 54 13 5 5 14 19 26 8 5 2 2 5 1 5 3 0 0 0 0 0 0 0 0 0 0 0 0 0 0 0
3 4 2 5 10 5 3 10 32 42 4 8 5 5 62 36 5 5 5 4 4 0 0 1 0 0 0 0 0 0 0 0 0 0 0 0 0 0 0 0 0 0 0 0 0
0 0 0 0 0 0 0 5 4 6 49 84 90 6 5 12 1 0 0 0 0 0 0 0 0 0 0 0 0 0 0 0 2 2 5 2 83 5 5 0 0 0 0 0 0
0 0 0 0 0 0 0 0 0 0 0 0 0 0 0 4 0 0 5 5 3 0 0 0 0 0 0 0 0 0 1 0 2 2 5 5 18 12 1 0 6 0 0 0 0
0 0 1 0 0 0 0 0 0 0 0 0 1 3 8 96 2 8 5 5 5 6 5 5 4 0 0 0 0 0 5 5 5 5 15 0 14 100 2 0 5 0 0 0 0
5 5 5 5 2 0 0 0 0 0 0 0 3 5 21 100 13 5 5 5 5 5 5 5 5 0 0 0 0 4 5 5 5 1 22 0 4 5 0 0 0 0 0 0 0
5 5 5 5 5 0 2 2 3 0 3 26 12 0 2 76 62 5 0 2 11 5 5 0 2 0 0 0 0 0 5 5 5 26 3 0 71 5 0 0 0 0 0 0 0
69 97 46 78 67 5 5 5 8 5 14 32 19 5 44 96 45 7 2 5 5 5 5 31 87 66 17 5 55 5 0 3 35 2 2 1 93 5 1 0 5 6 1 0 0
75 41 37 18 46 47 5 36 56 37 22 14 11 5 94 83 55 55 7 14 7 5 15 83 64 100 98 100 10 5 64 26 36 86 0 0 90 65 2 4 1 26 57 0 0
85 94 92 100 100 97 33 5 5 34 22 9 13 5 6 47 64 91 100 100 38 77 57 100 19 84 50 16 12 98 91 88 93 63 0 4 67 92 8 0 5 5 0 0 0
100 5 6 26 86 100 54 41 98 5 47 64 42 100 38 6 79 100 100 100 74 98 100 42 58 98 36 5 5 5 20 27 99 100 8 75 52 100 100 14 5 5 0 0 0
96 92 88 73 26 43 56 14 5 5 5 8 51 31 82 19 52 100 98 71 100 89 100 71 69 5 2 5 3 8 89 100 100 100 42 6 27 100 100 100 58 100 46 5 2
96 63 82 5 5 8 5 10 5 2 0 18 8 1 5 22 8 75 87 78 99 85 73 72 100 100 83 34 1 5 4 57 5 94 100 99 96 100 100 100 100 100 100 100 86
100 100 100 56 25 70 27 24 62 14 0 0 1 4 5 71 75 7 5 22 90 100 100 100 99 100 100 100 22 21 39 23 20 13 96 64 94 100 100 100 100 100 97 100 85
100 100 100 99 22 55 49 49 5 46 23 0 2 5 94 100 52 82 53 92 84 100 100 100 98 100 100 98 5 5 19 56 100 85 100 100 69 100 100 100 100 100 100 100 32
83 100 100 100 100 55 39 100 96 80 69 0 0 1 5 14 100 100 100 42 6 50 91 97 88 85 97 69 67 56 29 21 25 99 100 99 25 100 100 100 100 99 100 100 100
54 86 100 100 100 100 96 76 65 100 42 4 12 5 5 40 82 98 99 47 54 88 79 20 48 52 49 21 75 85 36 8 22 79 98 96 75 100 100 100 100 89 29 91 100
99 99 94 100 100 99 100 100 100 53 6 3 11 66 98 100 100 100 76 36 7 50 57 39 5 97 5 38 94 89 100 84 98 8 12 7 75 100 100 100 100 100 100 100 98
57 72 100 100 100 100 100 100 16 14 47 20 100 100 68 97 100 100 100 100 88 100 100 96 90 57 54 72 8 98 100 100 100 100 79 9 5 78 100 100 100 100 74 66 99
100 100 100 100 100 100 100 98 84 100 100 100 100 100 100 62 100 100 100 82 100 98 100 100 100 60 90 99 5 99 100 100 96 100 100 46 81 76 100 100 83 100 100 100 33
100 100 100 100 100 100 100 100 100 100 100 100 100 100 100 100 100 100 100 100 100 100 100 100 100 100 52 96 100 100 100 100 100 100 100 100 100 100 84 99 100 100 100 100 100
100 100 100 100 100 100 100 100 100 100 100 100 100 100 100 100 100 100 100 100 100 100 100 100 100 100 100 100 100 100 100 100 100 100 100 100 98 100 100 100 100 100 100 88 6
100 100 100 100 100 100 100 100 100 100 100 100 100 100 100 100 100 100 100 100 100 100 100 100 100 100 100 100 100 100 100 100 100 100 100 100 100 100 100 100 100 100 100 100 100
100 100 100 100 100 100 100 100 98 100 100 100 100 100 100 100 100 100 100 100 100 100 100 100 100 100 100 100 100 100 100 100 100 100 100 100 100 100 100 100 100 100 100 100 100
100 100 100 100 100 100 100 97 80 60 100 100 100 100 100 100 100 100 100 100 100 100 100 100 100 100 99 100 100 100 100 100 100 100 100 100 100 100 100 100 100 100 100 100 100
100 100 100 100 100 100 100 100 100 100 100 100 100 97 37 98 100 100 91 84 91 48 97 96 91 100 69 47 100 100 65 92 66 99 100 100 92 51 38 96 100 100 100 100 100
5 26 85 6 11 13 13 5 14 17 47 47 100 98 99 86 99 100 100 100 98 97 94 97 100 100 82 3 40 79 0 0 0 0 4 86 100 96 59 90 98 87 100 100 98